Location: Biberach+an+der+Riss
(48.0937°N, 9.7888°E)
Time: 02:42:40
(UTC+01:00)

Amateur Radio Satellites - All Passes

Search period start: 18 January 2018 02:12
Search period end: 19 January 2018 02:12
Location: Biberach+an+der+Riss, 48.0937°N, 9.7888°E

Satellite Date Start Highest point End Downlink Frequencies (MHz)
Time Altitude Azimuth
QB50P2 18 Jan 02:20:07 02:20:43 10° 305° (NW) 02:21:17 145.880/145.840
BEESAT 18 Jan 02:31:51 02:36:29 54° 70° (ENE) 02:41:08 436.000
BUGSAT 1 18 Jan 02:33:56 02:37:41 31° 293° (WNW) 02:41:26 437.445
Gurwin Techsat 1B 18 Jan 02:42:29 02:47:48 71° 288° (WNW) 02:53:05 435.225
AO-91 18 Jan 02:42:58 02:46:50 38° 290° (WNW) 02:51:05 145.960
ISS 18 Jan 02:44:28 02:47:42 55° 14° (NNE) 02:50:56 437.550
nSIGHT-1 18 Jan 02:46:28 02:49:38 66° 18° (NNE) 02:52:48 .
ITAMSAT 1 18 Jan 02:47:34 02:49:11 11° 86° (E) 02:50:49 435.822/435.867
CUBESAT XI-V 18 Jan 02:49:28 02:53:43 36° 67° (ENE) 02:58:00 437.345
AO-7 18 Jan 02:51:03 02:58:02 28° 93° (E) 03:04:56 .
MOZHAYETS 4 18 Jan 02:55:56 03:00:30 59° 259° (W) 03:05:07
KKS-1 18 Jan 03:17:37 03:19:43 13° 57° (ENE) 03:21:50 437.445
Oscar 19 18 Jan 03:26:56 03:31:06 25° 299° (WNW) 03:35:17 437.125/150
ITUPSAT 1 18 Jan 03:27:20 03:31:57 49° 260° (W) 03:36:39 437.325
STARS 18 Jan 03:45:35 03:46:19 10° 54° (NE) 03:47:03 437.465
O/OREOS (USA 219) 18 Jan 03:46:01 03:47:56 12° 319° (NW) 03:49:51 437.305
BEESAT 18 Jan 04:11:01 04:14:34 21° 268° (W) 04:18:08 436.000
DOVE 4 18 Jan 04:19:09 04:22:22 20° 93° (E) 04:25:39 437.250
ISS 18 Jan 04:21:01 04:24:08 41° 213° (SSW) 04:27:15 437.550
nSIGHT-1 18 Jan 04:22:50 04:25:38 28° 216° (SW) 04:28:27 .
ITAMSAT 1 18 Jan 04:24:16 04:29:30 78° 104° (ESE) 04:34:42 435.822/435.867
Gurwin Techsat 1B 18 Jan 04:24:24 04:26:50 13° 308° (NW) 04:29:17 435.225
CUBESAT XI-V 18 Jan 04:26:59 04:31:07 30° 265° (W) 04:35:16 437.345
AO-7 18 Jan 04:43:11 04:51:34 76° 293° (WNW) 04:59:53 .
KKS-1 18 Jan 04:51:12 04:55:38 87° 259° (WSW) 05:00:05 437.445
M-CUBED/EXP-1 PRIME 18 Jan 05:03:27 05:06:39 34° 103° (ESE) 05:09:41 437.505
STARS 18 Jan 05:17:31 05:21:50 73° 73° (ENE) 05:26:13 437.465
XW-2F 18 Jan 05:24:41 05:26:16 12° 89° (E) 05:27:51 145.980 - 146.000
KAITUO 1B 18 Jan 05:30:06 05:30:48 10° 88° (E) 05:31:30 145.475/437.950
XW-2D 18 Jan 05:30:32 05:32:56 16° 91° (E) 05:35:19 145.860 - 145.880
CUTE-I 18 Jan 05:32:47 05:36:16 17° 89° (E) 05:39:44 437.470
NUDT-PHONESAT 18 Jan 05:46:24 05:48:38 15° 91° (E) 05:50:52 437.300
XW-2B 18 Jan 05:47:29 05:50:33 23° 94° (E) 05:53:35 145.730 - 145.750
FO-29 18 Jan 05:54:49 05:59:28 21° 57° (ENE) 06:03:46 435.910
DOVE 4 18 Jan 05:56:13 06:00:15 44° 289° (WNW) 06:04:27 437.250
STRAND 1 18 Jan 05:57:45 06:02:14 32° 64° (ENE) 06:06:44 437.568
ITAMSAT 1 18 Jan 06:04:53 06:08:22 19° 303° (WNW) 06:11:52 435.822/435.867
LilacSat-2 18 Jan 06:10:19 06:14:00 46° 99° (E) 06:17:38 437.200
XW-2C 18 Jan 06:17:08 06:20:50 51° 100° (E) 06:24:29 145.795 - 145.815
SO-50 18 Jan 06:18:36 06:22:40 36° 118° (ESE) 06:26:48 436.795
HO-68 18 Jan 06:31:48 06:38:03 31° 94° (E) 06:44:14 435.675
KKS-1 18 Jan 06:32:24 06:32:52 10° 273° (W) 06:33:20 437.445
AO-7 18 Jan 06:36:59 06:43:06 23° 316° (NW) 06:49:13 .
M-CUBED/EXP-1 PRIME 18 Jan 06:38:20 06:40:51 19° 303° (WNW) 06:43:16 437.505
CUBEBUG 2 18 Jan 06:42:29 06:46:13 22° 92° (E) 06:49:56 437.445
UWE-3 18 Jan 06:55:42 06:58:51 18° 89° (E) 07:01:59 435.000/436.395/437.385
AAUSAT CUBESAT 2 18 Jan 06:55:54 06:56:52 11° 87° (E) 06:57:50 437.432
STARS 18 Jan 06:56:36 06:58:42 13° 271° (W) 07:00:48 437.465
XW-2F 18 Jan 06:57:03 07:00:46 59° 287° (WNW) 07:04:25 145.980 - 146.000
SEEDS 18 Jan 07:01:17 07:04:54 28° 95° (E) 07:08:29 437.485
KAITUO 1B 18 Jan 07:01:32 07:05:13 68° 286° (WNW) 07:08:53 145.475/437.950
XW-2D 18 Jan 07:03:43 07:07:20 44° 289° (WNW) 07:10:55 145.860 - 145.880
RS-15 18 Jan 07:06:10 07:14:05 20° 97° (E) 07:21:55 29.354- 29.394
CUTE 1.7 + AOD 2 18 Jan 07:06:33 07:10:41 51° 99° (E) 07:14:47 437.475
CUTE-I 18 Jan 07:11:34 07:16:53 75° 288° (WNW) 07:22:12 437.470
NUDT-PHONESAT 18 Jan 07:19:10 07:22:43 44° 288° (WNW) 07:26:12 437.300
XW-2B 18 Jan 07:21:24 07:24:45 30° 292° (WNW) 07:28:03 145.730 - 145.750
ZACube-1 18 Jan 07:27:14 07:30:32 19° 90° (E) 07:33:46 437.345
AO-73 18 Jan 07:36:08 07:39:33 20° 91° (E) 07:42:54 145.935
STRAND 1 18 Jan 07:36:35 07:41:19 39° 263° (W) 07:46:06 437.568
FO-29 18 Jan 07:36:59 07:43:58 88° 258° (WSW) 07:50:07 435.910
LilacSat-2 18 Jan 07:45:26 07:47:56 17° 297° (WNW) 07:50:26 437.200
XW-2C 18 Jan 07:52:20 07:54:37 16° 298° (WNW) 07:56:54 145.795 - 145.815
FALCONSAT 3 18 Jan 07:54:23 07:55:41 12° 181° (S) 07:56:58 435.103
SO-50 18 Jan 07:58:54 08:03:06 38° 319° (NW) 08:07:23 436.795
Oscar 11 18 Jan 08:13:00 08:16:46 28° 94° (E) 08:20:30 .
TIGRISAT 18 Jan 08:15:11 08:18:49 26° 64° (ENE) 08:22:32 435.000
CUBEBUG 2 18 Jan 08:18:28 08:23:03 49° 289° (WNW) 08:27:38 437.445
HO-68 18 Jan 08:19:09 08:26:11 61° 294° (WNW) 08:33:11 435.675
AAUSAT CUBESAT 2 18 Jan 08:28:45 08:32:52 80° 285° (WNW) 08:36:58 437.432
UNISAT 6 18 Jan 08:29:00 08:33:03 36° 67° (ENE) 08:37:13 437.425
UWE-3 18 Jan 08:31:03 08:35:42 61° 287° (WNW) 08:40:17 435.000/436.395/437.385
XW-2A 18 Jan 08:33:11 08:36:34 73° 284° (WNW) 08:39:54 145.665 - 145.685
SEEDS 18 Jan 08:36:54 08:40:35 31° 292° (WNW) 08:44:14 437.485
CUTE 1.7 + AOD 2 18 Jan 08:43:12 08:46:10 19° 298° (WNW) 08:49:06 437.475
O/OREOS (USA 219) 18 Jan 08:53:24 08:54:18 10° 38° (NE) 08:55:12 437.305
CUTE-I 18 Jan 08:53:27 08:56:04 14° 307° (NW) 08:58:40 437.470
ZACube-1 18 Jan 09:02:38 09:07:07 54° 289° (WNW) 09:11:33 437.345
AO-73 18 Jan 09:11:36 09:16:02 50° 289° (WNW) 09:20:24 145.935
RS-15 18 Jan 09:12:09 09:24:21 71° 120° (ESE) 09:36:21 29.354- 29.394
FO-29 18 Jan 09:25:24 09:29:41 17° 271° (W) 09:33:42 435.910
Max Valier Satellite 18 Jan 09:25:29 09:28:20 20° 93° (E) 09:31:08 145.860
DELFI C3 18 Jan 09:37:36 09:41:20 41° 98° (E) 09:45:04 145.870
YUBILEINY 18 Jan 09:40:14 09:48:24 41° 68° (ENE) 09:56:28 435.215
SO-50 18 Jan 09:42:37 09:44:51 13° 342° (NNW) 09:47:05 436.795
PRISM 18 Jan 09:43:38 09:47:34 50° 71° (ENE) 09:51:31 437.425
Oscar 11 18 Jan 09:49:03 09:52:56 33° 293° (WNW) 09:56:47 .
TIGRISAT 18 Jan 09:51:10 09:55:19 40° 263° (W) 09:59:34 435.000
EO-88 18 Jan 09:52:09 09:55:18 26° 95° (E) 09:58:23 145.990 - 145.960
NANOSAT C BR1 18 Jan 09:54:36 09:55:34 11° 56° (NE) 09:56:33 145.865
QB50P2 18 Jan 10:03:13 10:05:50 16° 60° (ENE) 10:08:27 145.880/145.840
UNISAT 6 18 Jan 10:06:05 10:09:50 27° 266° (W) 10:13:41 437.425
AAUSAT CUBESAT 2 18 Jan 10:07:21 10:07:34 10° 303° (WNW) 10:07:48 437.432
HO-68 18 Jan 10:08:33 10:12:34 16° 315° (NW) 10:16:34 435.675
AIST 2D 18 Jan 10:21:47 10:25:13 53° 74° (ENE) 10:28:41 435.315
PCSat 18 Jan 10:21:52 10:26:43 34° 112° (ESE) 10:31:34 145.827
O/OREOS (USA 219) 18 Jan 10:30:22 10:34:47 55° 60° (ENE) 10:39:10 437.305
EO-79 18 Jan 10:34:11 10:37:46 27° 66° (ENE) 10:41:23 145.935-145.965
DUCHIFAT 1 18 Jan 10:37:31 10:40:52 23° 64° (ENE) 10:44:13 145.980
Max Valier Satellite 18 Jan 10:58:51 11:02:13 33° 291° (WNW) 11:05:34 145.860
POLYITAN 1 18 Jan 11:07:33 11:11:42 58° 71° (ENE) 11:15:54 437.675
BEESAT 3 18 Jan 11:08:55 11:12:54 78° 125° (SE) 11:16:54 437.485
DELFI C3 18 Jan 11:12:58 11:15:49 19° 296° (WNW) 11:18:39 145.870
PRISM 18 Jan 11:20:27 11:23:06 17° 268° (W) 11:25:47 437.425
LO-87 18 Jan 11:21:48 11:25:15 39° 98° (E) 11:28:41 145.935 - 145.965
RS-15 18 Jan 11:25:44 11:37:39 51° 327° (NNW) 11:49:17 29.354- 29.394
EO-88 18 Jan 11:25:49 11:28:50 25° 293° (WNW) 11:31:51 145.990 - 145.960
NANOSAT C BR1 18 Jan 11:26:19 11:30:31 80° 75° (ENE) 11:34:47 145.865
SO-50 18 Jan 11:26:21 11:27:21 11° 7° (N) 11:28:22 436.795
Oscar 19 18 Jan 11:30:12 11:33:46 19° 57° (ENE) 11:37:19 437.125/150
ESTCUBE 1 18 Jan 11:32:16 11:36:33 41° 98° (E) 11:40:47 437.505/2401.250
QB50P2 18 Jan 11:36:56 11:41:07 64° 258° (WSW) 11:45:23 145.880/145.840
YUBILEINY 18 Jan 11:37:05 11:45:29 54° 270° (W) 11:53:48 435.215
BEESAT 2 18 Jan 11:48:48 11:52:44 57° 123° (ESE) 11:56:44 435.950
BUGSAT 1 18 Jan 11:51:28 11:55:05 32° 67° (ENE) 11:58:47 437.445
AIST 2D 18 Jan 11:57:16 11:58:42 12° 271° (W) 12:00:08 435.315
PCSat 18 Jan 12:04:46 12:09:59 46° 312° (NW) 12:15:14 145.827
AO-7 18 Jan 12:05:42 12:10:35 17° 37° (NE) 12:15:27 .
AO-91 18 Jan 12:08:27 12:11:13 24° 66° (ENE) 12:14:04 145.960
SPROUT 18 Jan 12:08:59 12:12:35 25° 94° (E) 12:16:09 437.525
EO-79 18 Jan 12:09:36 12:13:25 33° 264° (W) 12:17:17 145.935-145.965
O/OREOS (USA 219) 18 Jan 12:10:40 12:13:46 19° 259° (W) 12:16:52 437.305
DUCHIFAT 1 18 Jan 12:12:21 12:16:18 39° 262° (W) 12:20:18 145.980
Gurwin Techsat 1B 18 Jan 12:27:48 12:32:44 41° 66° (ENE) 12:37:42 435.225
POLYITAN 1 18 Jan 12:45:14 12:47:51 16° 270° (W) 12:50:29 437.675
BEESAT 3 18 Jan 12:47:57 12:50:53 19° 326° (NW) 12:53:50 437.485
LO-87 18 Jan 12:55:52 12:58:23 18° 296° (WNW) 13:00:52 145.935 - 145.965
AO-85 18 Jan 13:04:48 13:08:39 49° 121° (ESE) 13:12:48 145.980
NANOSAT C BR1 18 Jan 13:05:25 13:06:47 11° 273° (W) 13:08:10 145.865
SO-50 18 Jan 13:05:56 13:09:33 22° 31° (NNE) 13:13:12 436.795
Oscar 19 18 Jan 13:07:18 13:12:30 76° 256° (WSW) 13:17:45 437.125/150
ESTCUBE 1 18 Jan 13:09:29 13:13:09 25° 296° (WNW) 13:16:48 437.505/2401.250
VELOX 1 18 Jan 13:22:27 13:26:52 76° 102° (ESE) 13:31:15 145.980
BUGSAT 1 18 Jan 13:27:00 13:30:28 26° 266° (W) 13:33:58 437.445
BEESAT 2 18 Jan 13:27:26 13:30:45 24° 323° (NW) 13:34:05 435.950
YUBILEINY 18 Jan 13:38:30 13:40:04 11° 293° (WNW) 13:41:39 435.215
RS-15 18 Jan 13:42:43 13:53:36 35° 359° (N) 14:04:04 29.354- 29.394
SPROUT 18 Jan 13:44:36 13:48:33 36° 292° (WNW) 13:52:28 437.525
UKube-1 18 Jan 13:44:36 13:47:31 18° 91° (E) 13:50:26 .
AO-91 18 Jan 13:45:01 13:47:43 22° 266° (W) 13:50:29 145.960
DX 1 18 Jan 13:48:57 13:52:48 30° 96° (E) 13:56:38 434.975-435.025
PCSat 18 Jan 13:51:39 13:54:46 15° 336° (NNW) 13:57:53 145.827
AO-7 18 Jan 13:53:31 14:01:33 54° 61° (ENE) 14:09:38 .
50 SAT 18 Jan 14:06:20 14:09:18 39° 99° (E) 14:12:15 437.505
ITAMSAT 1 18 Jan 14:07:37 14:11:55 27° 61° (ENE) 14:16:14 435.822/435.867
Gurwin Techsat 1B 18 Jan 14:08:03 14:12:46 32° 265° (W) 14:17:31 435.225
M-CUBED/EXP-1 PRIME 18 Jan 14:19:25 14:21:29 13° 54° (NE) 14:23:30 437.505
AO-85 18 Jan 14:45:46 14:49:19 27° 324° (NW) 14:53:06 145.980
SO-50 18 Jan 14:45:56 14:50:38 89° 54° (NE) 14:55:24 436.795
MOZHAYETS 4 18 Jan 14:47:37 14:51:27 25° 93° (E) 14:55:15
Oscar 19 18 Jan 14:51:17 14:52:41 11° 275° (W) 14:54:07 437.125/150
VELOX 1 18 Jan 15:00:19 15:02:44 15° 302° (WNW) 15:05:10 145.980
UKube-1 18 Jan 15:19:39 15:23:51 53° 289° (WNW) 15:28:03 .
ITUPSAT 1 18 Jan 15:24:06 15:28:24 32° 96° (E) 15:32:42 437.325
DX 1 18 Jan 15:25:08 15:28:58 31° 294° (WNW) 15:32:46 434.975-435.025
DOVE 4 18 Jan 15:28:00 15:31:45 30° 67° (ENE) 15:35:25 437.250
50 SAT 18 Jan 15:39:07 15:40:43 13° 297° (WNW) 15:42:18 437.505
ITAMSAT 1 18 Jan 15:46:09 15:51:09 48° 260° (W) 15:56:10 435.822/435.867
AO-7 18 Jan 15:46:43 15:54:30 42° 261° (W) 16:02:24 .
M-CUBED/EXP-1 PRIME 18 Jan 15:50:58 15:55:22 88° 243° (WSW) 15:59:30 437.505
RS-15 18 Jan 15:57:54 16:09:32 51° 33° (NNE) 16:20:30 29.354- 29.394
BEESAT 18 Jan 16:05:38 16:10:28 77° 104° (ESE) 16:15:15 436.000
XW-2F 18 Jan 16:09:24 16:10:42 11° 60° (ENE) 16:12:01 145.980 - 146.000
XW-2D 18 Jan 16:15:24 16:17:35 15° 62° (ENE) 16:19:46 145.860 - 145.880
CUBESAT XI-V 18 Jan 16:19:03 16:23:35 51° 99° (E) 16:28:04 437.345
MOZHAYETS 4 18 Jan 16:24:23 16:28:45 42° 291° (WNW) 16:33:05
SO-50 18 Jan 16:27:57 16:30:28 14° 250° (WSW) 16:32:59 436.795
NUDT-PHONESAT 18 Jan 16:29:09 16:30:59 13° 61° (ENE) 16:32:50 437.300
AO-85 18 Jan 16:30:03 16:31:17 11° 348° (NNW) 16:32:32 145.980
XW-2B 18 Jan 16:32:04 16:34:56 20° 65° (ENE) 16:37:48 145.730 - 145.750
KKS-1 18 Jan 16:39:53 16:42:11 14° 89° (E) 16:44:29 437.445
LilacSat-2 18 Jan 16:55:10 16:58:46 38° 70° (ENE) 17:02:22 437.200
CUTE-I 18 Jan 16:57:34 17:02:29 40° 66° (ENE) 17:07:25 437.470
XW-2C 18 Jan 17:01:17 17:04:54 41° 71° (ENE) 17:08:32 145.795 - 145.815
ITUPSAT 1 18 Jan 17:01:52 17:06:15 36° 294° (WNW) 17:10:37 437.325
HO-68 18 Jan 17:04:21 17:10:40 35° 58° (ENE) 17:16:58 435.675
DOVE 4 18 Jan 17:05:41 17:09:27 29° 264° (W) 17:13:08 437.250
PCSat 18 Jan 17:22:47 17:26:27 18° 29° (NNE) 17:30:07 145.827
M-CUBED/EXP-1 PRIME 18 Jan 17:29:17 17:30:12 11° 266° (W) 17:31:06 437.505
XW-2F 18 Jan 17:40:25 17:44:14 77° 257° (WSW) 17:48:04 145.980 - 146.000
CUBEBUG 2 18 Jan 17:43:54 17:47:33 26° 64° (ENE) 17:51:19 437.445
KAITUO 1B 18 Jan 17:44:00 17:47:47 89° 83° (E) 17:51:35 145.475/437.950
BEESAT 18 Jan 17:44:39 17:47:39 17° 303° (WNW) 17:50:39 436.000
BEESAT 3 18 Jan 17:45:11 17:48:25 23° 37° (NE) 17:51:35 437.485
XW-2D 18 Jan 17:47:32 17:51:19 57° 259° (W) 17:55:07 145.860 - 145.880
AAUSAT CUBESAT 2 18 Jan 17:49:02 17:50:53 13° 59° (ENE) 17:52:44 437.432
NO-84 18 Jan 17:51:37 17:53:40 17° 134° (SE) 17:55:39 435.350 FM
UWE-3 18 Jan 17:55:56 17:59:17 21° 62° (ENE) 18:02:42 435.000/436.395/437.385
SEEDS 18 Jan 17:55:59 17:59:42 31° 67° (ENE) 18:03:26 437.485
CUBESAT XI-V 18 Jan 17:57:06 18:00:37 22° 298° (WNW) 18:04:06 437.345
NUDT-PHONESAT 18 Jan 18:00:38 18:04:21 61° 259° (W) 18:08:04 437.300
CUTE 1.7 + AOD 2 18 Jan 18:02:05 18:06:15 56° 72° (ENE) 18:10:27 437.475
XW-2B 18 Jan 18:05:17 18:08:53 37° 262° (W) 18:12:29 145.730 - 145.750
RS-15 18 Jan 18:11:02 18:22:41 69° 241° (WSW) 18:33:42 29.354- 29.394
AO-85 18 Jan 18:12:20 18:13:49 11° 13° (NNE) 18:15:20 145.980
KKS-1 18 Jan 18:14:48 18:19:14 72° 287° (WNW) 18:23:40 437.445
BEESAT 2 18 Jan 18:25:52 18:28:53 20° 34° (NE) 18:31:53 435.950
ZACube-1 18 Jan 18:26:09 18:29:39 23° 63° (ENE) 18:33:13 437.345
LilacSat-2 18 Jan 18:30:18 18:33:10 20° 267° (W) 18:36:03 437.200
AO-73 18 Jan 18:34:40 18:38:16 24° 64° (ENE) 18:41:56 145.935
XW-2C 18 Jan 18:36:34 18:39:15 18° 268° (W) 18:41:57 145.795 - 145.815
CUTE-I 18 Jan 18:37:51 18:42:36 33° 264° (W) 18:47:23 437.470
STARS 18 Jan 18:39:10 18:43:37 85° 107° (ESE) 18:48:02 437.465
HO-68 18 Jan 18:51:04 18:58:06 58° 258° (WSW) 19:05:10 435.675
PCSat 18 Jan 19:05:33 19:10:58 62° 52° (NE) 19:16:19 145.827
XW-2A 18 Jan 19:06:51 19:10:13 61° 74° (ENE) 19:13:38 145.665 - 145.685
Oscar 11 18 Jan 19:10:52 19:14:47 34° 68° (ENE) 19:18:44 .
CUBEBUG 2 18 Jan 19:19:56 19:24:00 38° 264° (W) 19:28:13 437.445
AAUSAT CUBESAT 2 18 Jan 19:21:36 19:25:45 79° 259° (W) 19:29:54 437.432
BEESAT 3 18 Jan 19:22:21 19:26:13 54° 237° (WSW) 19:29:59 437.485
NO-84 18 Jan 19:27:38 19:30:33 63° 332° (NNW) 19:33:22 435.350 FM
UWE-3 18 Jan 19:31:06 19:35:23 50° 261° (W) 19:39:50 435.000/436.395/437.385
SEEDS 18 Jan 19:31:41 19:35:21 29° 265° (W) 19:39:03 437.485
CUTE 1.7 + AOD 2 18 Jan 19:39:43 19:42:26 16° 270° (W) 19:45:10 437.475
STRAND 1 18 Jan 19:42:47 19:47:51 54° 101° (E) 19:52:53 437.568
AO-85 18 Jan 19:51:42 19:55:47 27° 37° (NE) 20:00:06 145.980
KKS-1 18 Jan 19:54:02 19:54:59 11° 306° (NW) 19:55:55 437.445
ZACube-1 18 Jan 20:01:23 20:05:38 46° 262° (W) 20:10:02 437.345
BEESAT 2 18 Jan 20:03:02 20:07:04 76° 234° (SW) 20:11:01 435.950
Max Valier Satellite 18 Jan 20:07:50 20:10:18 17° 64° (ENE) 20:12:46 145.860
AO-73 18 Jan 20:10:02 20:14:15 42° 262° (W) 20:18:36 145.935
STARS 18 Jan 20:17:08 20:19:19 14° 303° (WNW) 20:21:29 437.465
DELFI C3 18 Jan 20:25:48 20:29:26 38° 70° (ENE) 20:33:05 145.870
RS-15 18 Jan 20:25:49 20:32:38 18° 265° (W) 20:39:18 29.354- 29.394
FO-29 18 Jan 20:27:47 20:32:59 56° 101° (E) 20:38:05 435.910
EO-88 18 Jan 20:33:06 20:35:53 21° 65° (ENE) 20:38:40 145.990 - 145.960
XW-2A 18 Jan 20:43:02 20:43:17 10° 271° (W) 20:43:32 145.665 - 145.685
HO-68 18 Jan 20:46:11 20:47:23 10° 279° (W) 20:48:36 435.675
Oscar 11 18 Jan 20:47:13 20:50:57 28° 266° (W) 20:54:44 .
PCSat 18 Jan 20:49:39 20:53:57 25° 251° (WSW) 20:58:14 145.827
nSIGHT-1 18 Jan 21:03:25 21:04:24 11° 134° (SE) 21:05:23 .
NO-84 18 Jan 21:05:48 21:08:05 21° 351° (N) 21:10:22 435.350 FM
STRAND 1 18 Jan 21:22:36 21:26:42 25° 299° (WNW) 21:30:48 437.568
AO-85 18 Jan 21:31:46 21:36:38 70° 235° (SW) 21:41:48 145.980
TIGRISAT 18 Jan 21:38:33 21:42:51 34° 96° (E) 21:47:07 435.000
Max Valier Satellite 18 Jan 21:40:11 21:43:47 45° 261° (W) 21:47:25 145.860
UNISAT 6 18 Jan 21:52:54 21:57:29 50° 99° (E) 22:02:04 437.425
LO-87 18 Jan 22:00:57 22:04:00 27° 68° (ENE) 22:07:06 145.935 - 145.965
DELFI C3 18 Jan 22:01:23 22:04:19 20° 267° (W) 22:07:15 145.870
EO-88 18 Jan 22:05:59 22:09:19 33° 263° (W) 22:12:41 145.990 - 145.960
FO-29 18 Jan 22:13:41 22:17:45 23° 301° (WNW) 22:21:42 435.910
ESTCUBE 1 18 Jan 22:34:45 22:39:13 58° 71° (ENE) 22:43:39 437.505/2401.250
nSIGHT-1 18 Jan 22:36:53 22:40:00 61° 152° (SSE) 22:43:09 .
ISS 18 Jan 22:38:52 22:42:02 47° 149° (SSE) 22:45:12 437.550
NO-84 18 Jan 22:43:30 22:45:54 24° 14° (NNE) 22:48:19 435.350 FM
YUBILEINY 18 Jan 22:45:56 22:53:55 40° 85° (E) 23:01:53 435.215
VELOX 1 18 Jan 22:48:55 22:51:14 14° 58° (ENE) 22:53:33 145.980
PRISM 18 Jan 22:56:05 23:00:03 48° 100° (E) 23:04:00 437.425
SPROUT 18 Jan 23:05:21 23:09:04 30° 66° (ENE) 23:12:48 437.525
NANOSAT C BR1 18 Jan 23:10:08 23:10:19 10° 86° (E) 23:10:29 145.865
AO-85 18 Jan 23:14:40 23:16:19 12° 252° (WSW) 23:18:01 145.980
TIGRISAT 18 Jan 23:15:18 23:19:28 32° 294° (WNW) 23:23:37 435.000
AIST 2D 18 Jan 23:15:57 23:19:14 38° 98° (E) 23:22:29 435.315
QB50P2 18 Jan 23:19:00 23:21:46 17° 90° (E) 23:24:32 145.880/145.840
UNISAT 6 18 Jan 23:30:13 23:33:52 23° 298° (WNW) 23:37:32 437.425
LO-87 18 Jan 23:34:29 23:37:23 23° 266° (W) 23:40:18 145.935 - 145.965
EO-79 18 Jan 23:50:10 23:53:58 30° 96° (E) 23:57:44 145.935-145.965
DUCHIFAT 1 18 Jan 23:52:36 23:56:07 24° 94° (E) 23:59:37 145.980
nSIGHT-1 19 Jan 00:13:12 00:16:16 46° 351° (N) 00:19:22 .
ESTCUBE 1 19 Jan 00:13:19 00:16:22 18° 270° (W) 00:19:25 437.505/2401.250
ISS 19 Jan 00:15:19 00:18:31 52° 348° (NNW) 00:21:44 437.550
NO-84 19 Jan 00:20:28 00:23:19 85° 213° (SSW) 00:26:16 435.350 FM
VELOX 1 19 Jan 00:22:42 00:27:05 79° 256° (WSW) 00:31:31 145.980
POLYITAN 1 19 Jan 00:24:07 00:28:26 66° 102° (ESE) 00:32:41 437.675
PRISM 19 Jan 00:32:09 00:34:59 19° 298° (WNW) 00:37:50 437.425
50 SAT 19 Jan 00:34:23 00:36:45 20° 67° (ENE) 00:39:08 437.505
SPROUT 19 Jan 00:41:10 00:44:54 30° 264° (W) 00:48:42 437.525
YUBILEINY 19 Jan 00:41:54 00:50:30 54° 287° (WNW) 00:59:06 435.215
UKube-1 19 Jan 00:42:04 00:45:32 24° 63° (ENE) 00:49:01 .
NANOSAT C BR1 19 Jan 00:42:21 00:46:39 90° 151° (SSE) 00:50:55 145.865
Gurwin Techsat 1B 19 Jan 00:42:29 00:44:09 11° 85° (E) 00:45:49 435.225
O/OREOS (USA 219) 19 Jan 00:46:31 00:50:29 31° 106° (ESE) 00:54:27 437.305
DX 1 19 Jan 00:47:30 00:51:34 42° 69° (ENE) 00:55:39 434.975-435.025
AIST 2D 19 Jan 00:49:51 00:52:07 17° 296° (WNW) 00:54:23 435.315
QB50P2 19 Jan 00:53:41 00:57:54 56° 288° (WNW) 01:02:05 145.880/145.840
BUGSAT 1 19 Jan 01:04:13 01:08:05 33° 97° (E) 01:11:55 437.445
Oscar 19 19 Jan 01:15:34 01:20:04 29° 94° (E) 01:24:30 437.125/150
EO-79 19 Jan 01:25:55 01:29:41 31° 293° (WNW) 01:33:27 145.935-145.965
DUCHIFAT 1 19 Jan 01:27:56 01:31:51 37° 292° (WNW) 01:35:46 145.980
AO-91 19 Jan 01:28:35 01:32:38 41° 99° (E) 01:37:06 145.960
BEESAT 19 Jan 01:39:22 01:42:45 20° 59° (ENE) 01:46:10 436.000
nSIGHT-1 19 Jan 01:49:40 01:52:46 49° 11° (N) 01:55:53 .
CUBESAT XI-V 19 Jan 01:51:45 01:53:25 12° 55° (NE) 01:55:05 437.345
ISS 19 Jan 01:52:10 01:55:21 46° 8° (N) 01:58:32 437.550
MOZHAYETS 4 19 Jan 01:52:30 01:56:44 36° 67° (ENE) 02:00:59
AO-7 19 Jan 01:54:57 01:56:49 11° 81° (E) 01:58:41 .
NO-84 19 Jan 01:59:16 02:00:02 11° 229° (SW) 02:00:49 435.350 FM
POLYITAN 1 19 Jan 02:01:05 02:03:42 16° 300° (WNW) 02:06:19 437.675
50 SAT 19 Jan 02:05:52 02:08:23 23° 264° (W) 02:10:56 437.505
